#timestamp,LO_Frequency,Hit,StdDev 
1555059615.0,286047000.1,N
1555059615.9,286047000.1,N
1555059635.7,286046998.3,N
1555059655.6,286046999.0,N
1555059675.4,286046998.9,N
1555059695.3,286047000.0,N
1555059715.1,286047002.8,N
1555059716.0,286047002.8,N
1555059735.8,286047000.6,N
1555059755.7,286047002.3,N
1555059775.5,286047002.3,N
1555059795.4,286047002.6,N
1555059815.2,286047000.2,N
1555059835.0,286047001.2,N
1555059835.9,286047001.2,N
1555059855.8,286046998.4,N
1555059875.6,286046998.6,N
1555059895.4,286047002.4,N
1555059915.3,286047002.4,N
1555059935.1,286047002.3,N
1555059955.9,286047000.3,N
1555059975.7,286047000.3,N
1555059995.5,286046999.8,N
1555060015.4,286047002.2,N
1555060035.2,286047002.6,N
1555060055.0,286047001.3,N
1555060055.9,286047001.3,N
1555060075.8,286047003.2,N
1555060095.6,286047002.1,N
1555060115.5,286047000.2,N
1555060135.3,286047002.7,N
1555060155.1,286047002.7,N
1555060175.9,286046999.8,N
1555060195.7,286047002.7,N
1555060215.5,286047000.1,N
1555060235.4,286046999.9,N
1555060255.2,286047001.2,N
1555060275.1,286047001.0,N
1555060276.0,286047001.0,N
1555060295.8,286047000.8,N
1555060315.8,286046999.7,N
1555060335.6,286047002.6,N
1555060355.5,286047002.7,N
1555060375.3,286047002.5,N
1555060395.2,286047002.4,N
1555060415.9,286047000.3,N
1555060435.7,286047000.2,N
1555060455.6,286047002.1,N
1555060475.4,286047002.6,N
1555060495.2,286046999.8,N
1555060515.1,286047001.4,N
1555060516.0,286047001.4,N
1555060535.8,286047001.5,N
1555060555.7,286047001.7,N
1555060575.5,286047001.4,N
1555060595.3,286047001.4,N
1555060615.2,286047002.0,N
1555060635.0,286047004.3,Y
1555060635.9,286047004.3,P
1555060655.7,286047002.2,N
1555060675.6,286047002.6,N
1555060695.4,286047002.0,N
1555060715.3,286047002.7,N
1555060735.1,286047001.5,N
1555060736.0,286047001.5,N
1555060755.8,286047002.7,N
1555060775.7,286047001.7,N
1555060795.5,286047001.6,N
1555060815.3,286047001.7,N
1555060835.2,286047004.0,Y
1555060855.0,286047000.5,P
1555060855.9,286047000.5,N
1555060875.8,286046998.2,N
1555060895.6,286046998.6,N
1555060915.4,286046998.4,N
1555060935.3,286046997.1,N
1555060955.1,286046999.0,N
1555060975.9,286046999.5,N
1555060995.7,286046996.5,N
1555061015.5,286046996.6,N
1555061035.4,286046998.9,N
1555061055.2,286046997.7,N
1555061075.0,286046997.4,N
1555061076.0,286046997.4,N
1555061095.8,286046997.6,N
1555061115.6,286046995.3,Y
1555061135.5,286046997.5,P
1555061155.3,286046995.0,P
1555061175.1,286046997.2,N
1555061195.9,286046997.2,N
1555061215.7,286046995.8,Y
1555061235.6,286046998.6,P
1555061255.4,286046998.9,N
1555061275.2,286046996.6,P
1555061295.1,286046999.0,N
1555061296.0,286046999.0,N
1555061315.8,286046998.8,N
1555061335.6,286046998.1,N
1555061355.5,286047001.0,N
1555061375.3,286046998.1,N
1555061395.2,286046998.1,N
1555061415.9,286047000.9,N
1555061435.7,286046999.1,N
1555061455.6,286046998.7,N
1555061475.4,286047001.1,N
1555061495.2,286046999.0,N
1555061515.1,286047000.5,N
1555061516.0,286047000.5,N
1555061535.8,286047001.1,N
1555061555.7,286046999.3,N
1555061575.5,286046998.8,N
1555061595.3,286046998.7,N
1555061615.2,286046998.7,N
1555061635.1,286046998.3,N
1555061655.8,286046998.9,N
1555061675.7,286046998.4,N
1555061695.5,286047000.7,N
1555061715.4,286047001.1,N
1555061735.2,286047000.8,N
1555061755.0,286046999.9,N
1555061755.9,286046999.9,N
1555061775.8,286047000.4,N
1555061795.6,286047001.0,N
1555061815.4,286046998.5,N
1555061835.3,286046998.3,N
1555061855.1,286046997.0,N
1555061875.9,286046995.2,Y
1555061895.7,286046996.7,P
1555061915.5,286046996.8,N
1555061935.4,286046997.7,N
1555061955.2,286046997.5,N
1555061975.1,286046998.0,N
1555061976.0,286046998.0,N
1555061995.8,286046997.1,Y
1555062015.6,286046998.4,P
1555062035.5,286046998.3,P
1555062055.3,286046998.8,P
1555062075.1,286047001.1,N
1555062095.9,286046998.3,N
1555062115.7,286047001.2,N
1555062135.6,286047000.6,N
1555062155.4,286047001.0,N
1555062175.2,286047000.0,N
1555062195.1,286046998.6,N
1555062196.0,286046998.6,N
1555062215.8,286046999.1,N
1555062235.6,286046996.5,N
1555062255.5,286046996.5,N
1555062275.3,286046996.7,N
1555062295.2,286046997.8,N
1555062315.9,286046996.7,N
1555062335.7,286046997.4,N
1555062355.6,286046997.1,N
1555062375.4,286046999.4,N
1555062395.2,286046998.8,N
1555062415.1,286046998.9,N
1555062416.0,286046998.9,N
1555062435.8,286046999.5,N
1555062455.7,286046996.6,N
1555062475.5,286046999.4,N
1555062495.3,286046999.0,N
1555062515.2,286046998.5,N
1555062535.0,286047000.1,N
1555062535.9,286047000.1,N
1555062555.7,286047002.2,N
1555062575.6,286047002.4,N
1555062595.4,286047002.6,N
1555062615.4,286047000.3,N
1555062635.2,286047000.6,N
1555062655.1,286046998.5,N
1555062656.0,286046998.5,N
1555062675.8,286046999.0,N
1555062695.7,286046998.4,N
1555062715.5,286046999.6,N
1555062735.3,286046997.3,N
1555062755.2,286046996.6,N
1555062775.0,286046996.6,N
1555062775.9,286046996.6,N
1555062795.7,286046997.4,N
1555062815.6,286046995.0,Y
1555062835.5,286046997.2,P
1555062855.3,286046997.7,N
1555062875.1,286046996.7,P
1555062895.9,286046999.3,N
1555062915.7,286046996.9,Y
1555062935.5,286047001.0,P
1555062955.4,286047000.4,N
1555062975.2,286046996.5,N
1555062995.1,286046999.2,N
1555062996.0,286046999.2,N
1555063015.8,286046998.9,N
1555063035.6,286046996.9,N
1555063055.5,286046999.1,N
1555063075.3,286046998.4,N
1555063095.1,286046998.2,N
1555063115.9,286046998.6,N
1555063135.7,286046998.7,N
1555063155.6,286046999.1,N
1555063175.4,286046999.6,N
1555063195.2,286046997.0,N
